This demonstration page uses our WeatherBlox Daily Observations layout. Learn more.

Left ArrowRight Arrow

Hourly Observations for October 1, 2022

Temp ( °F °C ) Dew Point ( °F °C ) Humidity (%) Winds ( mph kmh ) Pressure ( in mb ) Visibility ( mi km ) Precip ( " mm )
12:53 am 00:53 Clear 57 13.9 51 10.6 80 80 Calm 30.11 1020 10 16 0.00 0.00
1:53 am 01:53 Mostly Cloudy 57 13.9 51 10.6 80 80 ENE 7 11 30.12 1020 10 16 0.00 0.00
2:53 am 02:53 Clear 56 13.3 48 8.9 75 75 ENE 7 11 30.14 1021 10 16 0.00 0.00
3:53 am 03:53 Clear 56 13.3 46 7.8 69 69 ENE 9 15 30.13 1020 10 16 0.00 0.00
4:53 am 04:53 Clear 54 12.2 46 7.8 74 74 E 8 13 30.14 1021 10 16 0.00 0.00
5:53 am 05:53 Clear 54 12.2 46 7.8 74 74 NE 7 11 30.15 1021 10 16 0.00 0.00
6:53 am 06:53 Clear 52 11.1 45 7.2 77 77 NNE 7 11 30.16 1022 10 16 0.00 0.00
7:53 am 07:53 Sunny 53 11.7 45 7.2 74 74 ENE 9 15 30.18 1022 10 16 0.00 0.00
8:53 am 08:53 Mostly Cloudy 55 12.8 46 7.8 72 72 NE 8 13 30.19 1022 10 16 0.00 0.00
9:53 am 09:53 Cloudy 55 12.8 46 7.8 72 72 ENE 7 11 30.20 1023 10 16 0.00 0.00
10:53 am 10:53 Cloudy 55 12.8 46 7.8 72 72 ENE 8 13 30.20 1023 10 16 0.00 0.00
11:53 am 11:53 Mostly Cloudy 57 13.9 46 7.8 67 67 ENE 9 15 30.20 1023 10 16 0.00 0.00
12:53 pm 12:53 Partly Cloudy 58 14.4 47 8.3 67 67 ENE 13 20 30.19 1022 10 16 0.00 0.00
1:53 pm 13:53 Cloudy 58 14.4 47 8.3 67 67 ENE 10 17 30.18 1022 10 16 0.00 0.00
2:53 pm 14:53 Cloudy 59 15 47 8.3 64 64 E 15 24 30.16 1021 10 16 0.00 0.00
3:53 pm 15:53 Mostly Cloudy 58 14.4 47 8.3 67 67 ESE 13 20 30.16 1021 10 16 0.00 0.00
4:53 pm 16:53 Cloudy with Light Rain 55 12.8 49 9.4 80 80 ESE 10 17 30.16 1022 10 16 0.01 0.13
5:53 pm 17:53 Cloudy with Light Rain 53 11.7 50 10 89 89 E 8 13 30.17 1022 5 8 0.01 0.25
6:29 pm 18:29 Cloudy with Light Rain 53 11.7 50 10 89 89 E 9 15 30.15 1021 4 6 0.04 1.02
6:53 pm 18:53 Cloudy with Light Rain 52 11.1 51 10.6 97 97 E 9 15 30.18 1022 4 6 0.05 1.27
7:12 pm 19:12 Cloudy with Light Rain 52 11.1 51 10.6 97 97 ENE 8 13 30.15 1021 6 10 0.01 0.13
7:48 pm 19:48 Cloudy with Light Rain 52 11 52 11 100 100 ENE 7 11 30.15 1021 5 8 0.04 1.02
7:53 pm 19:53 Cloudy with Light Rain 52 11.1 51 10.6 97 97 ENE 6 9 30.17 1022 5 8 0.04 1.02
8:10 pm 20:10 Cloudy with Light Rain 52 11.1 51 10.6 97 97 E 8 13 30.15 1021 6 10 0.01 0.25
8:22 pm 20:22 Cloudy with Light Rain 52 11.1 51 10.6 97 97 E 8 13 30.15 1021 6 10 0.01 0.25
8:41 pm 20:41 Cloudy with Light Rain 52 11.1 51 10.6 97 97 E 9 15 30.15 1021 6 10 0.02 0.51
8:53 pm 20:53 Cloudy 52 11.1 51 10.6 97 97 E 9 15 30.17 1022 7 11 0.02 0.51
9:08 pm 21:08 Cloudy 52 11.1 51 10.6 97 97 E 8 13 30.15 1021 10 16 0.00 0.00
9:53 pm 21:53 Cloudy 52 11.1 50 10 93 93 E 8 13 30.16 1021 10 16 0.00 0.00
10:24 pm 22:24 Cloudy 52 11.1 51 10.6 97 97 E 8 13 30.13 1020 10 16 0.00 0.00
10:41 pm 22:41 Cloudy 52 11.1 51 10.6 97 97 E 8 13 30.13 1020 10 16 0.00 0.00
10:53 pm 22:53 Cloudy 52 11.1 51 10.6 97 97 E 9 15 30.14 1021 10 16 0.00 0.00
11:32 pm 23:32 Cloudy 52 11.1 51 10.6 97 97 ENE 8 13 30.12 1020 10 16 0.00 0.00
11:48 pm 23:48 Cloudy 52 11 52 11 100 100 E 7 11 30.12 1020 10 16 0.00 0.00
11:53 pm 23:53 Cloudy 52 11.1 51 10.6 97 97 E 9 15 30.13 1020 10 16 0.00 0.00

Powered by AerisWeather